| time (UTC) | temp F | wind direction | speed knots | gust knots | rain 1hr in | rain 24hr in | rain mn in | humidity % | barometer mb |
| 20260504231931 | 67 | 226 | 4.3 | 6.1 | 0.00 | 0.00 | 0.00 | 47 | 1007.7 |
| 20260504231427 | 66 | 197 | 6.1 | 6.1 | 0.00 | 0.00 | 0.00 | 47 | 1007.6 |
| 20260504230924 | 67 | 236 | 6.1 | 7.8 | 0.00 | 0.00 | 0.00 | 43 | 1007.5 |
| 20260504230421 | 66 | 276 | 5.2 | 6.1 | 0.00 | 0.00 | 0.00 | 49 | 1007.5 |
| 20260504225920 | 67 | 261 | 5.2 | 6.1 | 0.00 | 0.00 | 0.00 | 48 | 1007.4 |
| 20260504225416 | 67 | 243 | 6.1 | 6.1 | 0.00 | 0.00 | 0.00 | 45 | 1006.9 |
| 20260504224914 | 67 | 247 | 7.0 | 8.7 | 0.00 | 0.00 | 0.00 | 45 | 1007.1 |
| 20260504224410 | 67 | 303 | 8.7 | 10.4 | 0.00 | 0.00 | 0.00 | 45 | 1007.1 |
| 20260504223907 | 67 | 263 | 8.7 | 12.2 | 0.00 | 0.00 | 0.00 | 43 | 1007.0 |
| 20260504223402 | 68 | 215 | 7.0 | 8.7 | 0.00 | 0.00 | 0.00 | 45 | 1007.0 |
| 20260504222859 | 68 | 228 | 9.6 | 10.4 | 0.00 | 0.00 | 0.00 | 42 | 1006.9 |
| 20260504222356 | 68 | 226 | 7.8 | 8.7 | 0.00 | 0.00 | 0.00 | 43 | 1006.8 |
| 20260504221854 | 68 | 250 | 14.8 | 19.1 | 0.00 | 0.00 | 0.00 | 42 | 1007.1 |
| 20260504221350 | 68 | 244 | 7.8 | 8.7 | 0.00 | 0.00 | 0.00 | 47 | 1006.9 |
| 20260504220848 | 68 | 281 | 16.5 | 18.2 | 0.00 | 0.00 | 0.00 | 40 | 1007.0 |
| 20260504220344 | 68 | 282 | 12.2 | 16.5 | 0.00 | 0.00 | 0.00 | 40 | 1007.2 |
| 20260504215842 | 67 | 235 | 10.4 | 12.2 | 0.00 | 0.00 | 0.00 | 41 | 1007.2 |
| 20260504215338 | 67 | 261 | 8.7 | 10.4 | 0.00 | 0.00 | 0.00 | 41 | 1007.1 |
| 20260504214834 | 67 | 220 | 6.1 | 8.7 | 0.00 | 0.00 | 0.00 | 41 | 1007.0 |
| 20260504214331 | 67 | 232 | 13.9 | 16.5 | 0.00 | 0.00 | 0.00 | 38 | 1007.2 |
| 20260504213828 | 68 | 287 | 11.3 | 16.5 | 0.00 | 0.00 | 0.00 | 41 | 1007.2 |
| 20260504213323 | 69 | 240 | 13.9 | 16.5 | 0.00 | 0.00 | 0.00 | 39 | 1007.0 |
| 20260504212821 | 68 | 349 | 4.3 | 6.1 | 0.00 | 0.00 | 0.00 | 41 | 1007.0 |
| 20260504212317 | 67 | 258 | 6.1 | 12.2 | 0.00 | 0.00 | 0.00 | 43 | 1006.9 |
| 20260504211815 | 68 | 277 | 10.4 | 16.5 | 0.00 | 0.00 | 0.00 | 46 | 1007.1 |
| 20260504211311 | 67 | 260 | 9.6 | 18.2 | 0.00 | 0.00 | 0.00 | 39 | 1007.0 |
| 20260504210809 | 67 | 268 | 13.0 | 14.8 | 0.00 | 0.00 | 0.00 | 39 | 1007.0 |
| 20260504210306 | 67 | 296 | 14.8 | 22.6 | 0.00 | 0.00 | 0.00 | 39 | 1007.2 |
| 20260504205803 | 67 | 251 | 11.3 | 16.5 | 0.00 | 0.00 | 0.00 | 44 | 1007.0 |
| 20260504205300 | 68 | 164 | 2.6 | 6.1 | 0.00 | 0.00 | 0.00 | 39 | 1007.0 |
| 20260504204758 | 68 | 194 | 2.6 | 6.1 | 0.00 | 0.00 | 0.00 | 40 | 1006.9 |
| 20260504204256 | 69 | 30 | 7.0 | 10.4 | 0.00 | 0.00 | 0.00 | 39 | 1006.7 |
| 20260504203756 | 70 | 289 | 7.8 | 8.7 | 0.00 | 0.00 | 0.00 | 35 | 1007.1 |
| 20260504203252 | 68 | 233 | 7.8 | 12.2 | 0.00 | 0.00 | 0.00 | 42 | 1006.7 |
| 20260504202747 | 68 | 188 | 4.3 | 6.1 | 0.00 | 0.00 | 0.00 | 39 | 1006.7 |
| 20260504202244 | 68 | 237 | 13.9 | 16.5 | 0.00 | 0.00 | 0.00 | 39 | 1007.1 |
| 20260504201741 | 67 | 230 | 12.2 | 14.8 | 0.00 | 0.00 | 0.00 | 41 | 1007.2 |
| 20260504201238 | 68 | 240 | 18.2 | 20.9 | 0.00 | 0.00 | 0.00 | 41 | 1007.1 |
| 20260504200736 | 68 | 260 | 11.3 | 16.5 | 0.00 | 0.00 | 0.00 | 42 | 1007.1 |
| 20260504200232 | 68 | 248 | 9.6 | 12.2 | 0.00 | 0.00 | 0.00 | 40 | 1006.9 |
| 20260504195729 | 68 | 267 | 6.1 | 8.7 | 0.00 | 0.00 | 0.00 | 43 | 1007.2 |
| 20260504195225 | 67 | 217 | 13.0 | 14.8 | 0.00 | 0.00 | 0.00 | 39 | 1007.1 |
| 20260504194722 | 67 | 236 | 16.5 | 20.9 | 0.00 | 0.00 | 0.00 | 42 | 1007.2 |
| 20260504194218 | 66 | 219 | 13.9 | 14.8 | 0.00 | 0.00 | 0.00 | 41 | 1007.1 |
| 20260504193714 | 67 | 218 | 11.3 | 14.8 | 0.00 | 0.00 | 0.00 | 43 | 1007.2 |
| 20260504193212 | 68 | 197 | 10.4 | 14.8 | 0.00 | 0.00 | 0.00 | 42 | 1007.1 |
| 20260504192710 | 67 | 273 | 10.4 | 18.2 | 0.00 | 0.00 | 0.00 | 44 | 1007.3 |
| 20260504192208 | 67 | 243 | 14.8 | 19.1 | 0.00 | 0.00 | 0.00 | 44 | 1007.4 |
| 20260504191706 | 67 | 262 | 7.8 | 13.0 | 0.00 | 0.00 | 0.00 | 43 | 1007.2 |
| 20260504191203 | 68 | 194 | 10.4 | 16.5 | 0.00 | 0.00 | 0.00 | 42 | 1007.1 |
| 20260504190658 | 68 | 251 | 11.3 | 12.2 | 0.00 | 0.00 | 0.00 | 44 | 1007.1 |
| 20260504190155 | 67 | 214 | 6.1 | 7.8 | 0.00 | 0.00 | 0.00 | 41 | 1007.1 |
| 20260504185651 | 66 | 270 | 6.1 | 8.7 | 0.00 | 0.00 | 0.00 | 44 | 1007.4 |
| 20260504185148 | 68 | 235 | 7.0 | 8.7 | 0.00 | 0.00 | 0.00 | 39 | 1007.2 |
| 20260504184644 | 67 | 188 | 8.7 | 13.0 | 0.00 | 0.00 | 0.00 | 44 | 1007.3 |
| 20260504184139 | 67 | 239 | 9.6 | 14.8 | 0.00 | 0.00 | 0.00 | 42 | 1007.3 |
| 20260504183636 | 66 | 253 | 7.0 | 8.7 | 0.00 | 0.00 | 0.00 | 42 | 1007.2 |
| 20260504183134 | 66 | 261 | 12.2 | 14.8 | 0.00 | 0.00 | 0.00 | 42 | 1007.2 |
| 20260504182631 | 66 | 232 | 8.7 | 8.7 | 0.00 | 0.00 | 0.00 | 40 | 1007.4 |
| 20260504182129 | 65 | 232 | 13.9 | 20.9 | 0.00 | 0.00 | 0.00 | 46 | 1007.6 |
| 20260504181626 | 66 | 254 | 7.0 | 14.8 | 0.00 | 0.00 | 0.00 | 41 | 1007.5 |
| 20260504181123 | 66 | 291 | 7.8 | 8.7 | 0.00 | 0.00 | 0.00 | 40 | 1007.5 |
| 20260504180622 | 66 | 253 | 13.0 | 20.9 | 0.00 | 0.00 | 0.00 | 39 | 1007.4 |
| 20260504180121 | 66 | 232 | 8.7 | 10.4 | 0.00 | 0.00 | 0.00 | 40 | 1007.3 |
| 20260504175618 | 65 | 263 | 9.6 | 13.0 | 0.00 | 0.00 | 0.00 | 43 | 1007.5 |
| 20260504175114 | 65 | 277 | 16.5 | 19.1 | 0.00 | 0.00 | 0.00 | 39 | 1007.5 |
| 20260504174613 | 65 | 258 | 12.2 | 13.0 | 0.00 | 0.00 | 0.00 | 41 | 1007.5 |
| 20260504174109 | 65 | 255 | 17.4 | 19.1 | 0.00 | 0.00 | 0.00 | 43 | 1007.6 |
| 20260504173606 | 66 | 198 | 9.6 | 10.4 | 0.00 | 0.00 | 0.00 | 43 | 1007.5 |
| 20260504173104 | 65 | 321 | 11.3 | 12.2 | 0.00 | 0.00 | 0.00 | 43 | 1007.4 |
| 20260504172559 | 64 | 243 | 8.7 | 10.4 | 0.00 | 0.00 | 0.00 | 45 | 1007.5 |
| 20260504172056 | 65 | 233 | 17.4 | 22.6 | 0.00 | 0.00 | 0.00 | 39 | 1007.6 |
| 20260504171553 | 64 | 233 | 16.5 | 22.6 | 0.00 | 0.00 | 0.00 | 40 | 1007.9 |
| 20260504171050 | 65 | 253 | 8.7 | 13.0 | 0.00 | 0.00 | 0.00 | 41 | 1007.5 |
| 20260504170545 | 64 | 216 | 14.8 | 16.5 | 0.00 | 0.00 | 0.00 | 41 | 1007.5 |
| 20260504150930 | 61 | 231 | 17.4 | 22.6 | 0.00 | 0.00 | 0.00 | 48 | 1008.4 |
| 20260504150426 | 60 | 237 | 7.0 | 7.8 | 0.00 | 0.00 | 0.00 | 47 | 1008.4 |
| 20260504140853 | 58 | 303 | 6.1 | 8.7 | 0.00 | 0.00 | 0.00 | 55 | 1009.2 |
| 20260504140349 | 57 | 268 | 10.4 | 12.2 | 0.00 | 0.00 | 0.00 | 56 | 1009.7 |
| 20260504130818 | 54 | 284 | 10.4 | 18.2 | 0.00 | 0.00 | 0.00 | 62 | 1010.2 |
| 20260504130314 | 54 | 240 | 11.3 | 13.0 | 0.00 | 0.00 | 0.00 | 60 | 1009.8 |
| 20260504120237 | 49 | 145 | 5.2 | 6.1 | 0.00 | 0.00 | 0.00 | 69 | 1010.6 |
| 20260504110705 | 49 | 212 | 7.8 | 13.0 | 0.00 | 0.00 | 0.00 | 69 | 1010.8 |
| 20260504110201 | 48 | 211 | 7.8 | 8.7 | 0.00 | 0.00 | 0.00 | 70 | 1010.7 |
| 20260504100125 | 47 | 179 | 5.2 | 6.1 | 0.00 | 0.00 | 0.00 | 73 | 1010.4 |
| 20260504081518 | 43 | 132 | 1.7 | 1.7 | 0.00 | 0.00 | 0.00 | 78 | 1010.5 |
| 20260504081013 | 44 | 97 | 1.7 | 1.7 | 0.00 | 0.00 | 0.00 | 74 | 1010.5 |
| 20260504080510 | 43 | 57 | 1.7 | 2.6 | 0.00 | 0.00 | 0.00 | 76 | 1010.4 |
| 20260504050317 | 34 | 140 | 0.0 | 1.7 | 0.00 | 0.00 | 0.00 | 92 | 1010.5 |
| 20260504045814 | 33 | 154 | 0.0 | 0.0 | 0.00 | 0.00 | 0.00 | 92 | 1010.5 |
| 20260504045309 | 33 | 155 | 0.0 | 0.0 | 0.00 | 0.00 | 0.00 | 92 | 1010.4 |
| 20260504044806 | 34 | 136 | 0.9 | 1.7 | 0.00 | 0.00 | 0.00 | 92 | 1010.3 |
| 20260504044304 | 33 | 153 | 0.0 | 0.0 | 0.00 | 0.00 | 0.00 | 92 | 1010.4 |
| 20260504043801 | 34 | 63 | 1.7 | 1.7 | 0.00 | 0.00 | 0.00 | 92 | 1010.5 |
| 20260504043258 | 34 | 150 | 0.0 | 0.0 | 0.00 | 0.00 | 0.00 | 91 | 1010.6 |
| 20260504042755 | 34 | 152 | 0.0 | 0.0 | 0.00 | 0.00 | 0.00 | 91 | 1010.4 |
| 20260504042251 | 34 | 137 | 0.0 | 1.7 | 0.00 | 0.00 | 0.00 | 91 | 1010.5 |
| 20260504041748 | 34 | 142 | 0.9 | 1.7 | 0.00 | 0.00 | 0.00 | 90 | 1010.6 |
| 20260504041244 | 35 | 101 | 1.7 | 1.7 | 0.00 | 0.00 | 0.00 | 90 | 1010.5 |
| 20260504040740 | 35 | 94 | 1.7 | 1.7 | 0.00 | 0.00 | 0.00 | 89 | 1010.6 |
| 20260504040238 | 36 | 109 | 1.7 | 1.7 | 0.00 | 0.00 | 0.00 | 89 | 1010.4 |
| 20260504035733 | 36 | 153 | 0.0 | 0.0 | 0.00 | 0.00 | 0.00 | 89 | 1010.2 |
| 20260504035231 | 36 | 130 | 1.7 | 1.7 | 0.00 | 0.00 | 0.00 | 89 | 1010.3 |
| 20260504034728 | 36 | 99 | 1.7 | 2.6 | 0.00 | 0.00 | 0.00 | 89 | 1009.9 |
| 20260504034225 | 36 | 116 | 1.7 | 1.7 | 0.00 | 0.00 | 0.00 | 88 | 1010.2 |
| 20260504033723 | 37 | 141 | 0.0 | 1.7 | 0.00 | 0.00 | 0.00 | 87 | 1010.3 |
| 20260504033221 | 37 | 145 | 0.0 | 0.0 | 0.00 | 0.00 | 0.00 | 87 | 1010.4 |
| 20260504032717 | 37 | 138 | 1.7 | 1.7 | 0.00 | 0.00 | 0.00 | 87 | 1010.0 |
| 20260504032214 | 37 | 148 | 0.0 | 1.7 | 0.00 | 0.00 | 0.00 | 86 | 1010.2 |
| 20260504031711 | 37 | 125 | 0.9 | 1.7 | 0.00 | 0.00 | 0.00 | 85 | 1010.0 |
| 20260504031208 | 37 | 153 | 0.0 | 0.0 | 0.00 | 0.00 | 0.00 | 84 | 1010.0 |
| 20260504030704 | 37 | 150 | 0.0 | 0.0 | 0.00 | 0.00 | 0.00 | 84 | 1010.0 |
| 20260504030202 | 38 | 150 | 0.0 | 0.0 | 0.00 | 0.00 | 0.00 | 83 | 1009.9 |
| 20260504025658 | 38 | 148 | 0.0 | 0.0 | 0.00 | 0.00 | 0.00 | 83 | 1010.0 |
| 20260504025155 | 38 | 147 | 0.0 | 0.0 | 0.00 | 0.00 | 0.00 | 82 | 1010.0 |
| 20260504024652 | 38 | 148 | 0.0 | 0.0 | 0.00 | 0.00 | 0.00 | 81 | 1010.0 |
| 20260504024148 | 39 | 133 | 0.9 | 1.7 | 0.00 | 0.00 | 0.00 | 81 | 1009.9 |
| 20260504023645 | 39 | 148 | 0.0 | 1.7 | 0.00 | 0.00 | 0.00 | 79 | 1010.2 |
| 20260504023141 | 39 | 148 | 0.0 | 0.0 | 0.00 | 0.00 | 0.00 | 78 | 1010.2 |
| 20260504022637 | 39 | 139 | 0.9 | 1.7 | 0.00 | 0.00 | 0.00 | 77 | 1010.2 |
| 20260504022133 | 39 | 128 | 1.7 | 1.7 | 0.00 | 0.00 | 0.00 | 76 | 1010.2 |
| 20260504021632 | 39 | 159 | 0.0 | 0.0 | 0.00 | 0.00 | 0.00 | 75 | 1010.3 |
| 20260504021128 | 40 | 145 | 0.0 | 1.7 | 0.00 | 0.00 | 0.00 | 75 | 1010.0 |
| 20260504020625 | 40 | 138 | 0.9 | 1.7 | 0.00 | 0.00 | 0.00 | 74 | 1010.0 |
| 20260504020121 | 41 | 121 | 1.7 | 1.7 | 0.00 | 0.00 | 0.00 | 74 | 1009.9 |
| 20260504015618 | 41 | 153 | 0.9 | 1.7 | 0.00 | 0.00 | 0.00 | 72 | 1009.8 |
| 20260504015114 | 41 | 154 | 0.0 | 0.0 | 0.00 | 0.00 | 0.00 | 71 | 1009.9 |
| 20260504014610 | 42 | 129 | 1.7 | 1.7 | 0.00 | 0.00 | 0.00 | 72 | 1010.2 |
| 20260504014107 | 43 | 83 | 1.7 | 2.6 | 0.00 | 0.00 | 0.00 | 70 | 1010.2 |
| 20260504013605 | 45 | 187 | 0.9 | 1.7 | 0.00 | 0.00 | 0.00 | 65 | 1009.9 |
| 20260504013102 | 46 | 197 | 1.7 | 1.7 | 0.00 | 0.00 | 0.00 | 65 | 1010.0 |
| 20260504012559 | 46 | 229 | 3.5 | 4.3 | 0.00 | 0.00 | 0.00 | 61 | 1009.9 |
| 20260504012057 | 46 | 232 | 3.5 | 4.3 | 0.00 | 0.00 | 0.00 | 63 | 1009.7 |
| 20260504011553 | 46 | 241 | 2.6 | 2.6 | 0.00 | 0.00 | 0.00 | 66 | 1009.6 |
| 20260504011049 | 46 | 252 | 2.6 | 2.6 | 0.00 | 0.00 | 0.00 | 65 | 1009.7 |
| 20260504010545 | 46 | 234 | 2.6 | 2.6 | 0.00 | 0.00 | 0.00 | 64 | 1009.6 |
| 20260504010042 | 45 | 217 | 1.7 | 2.6 | 0.00 | 0.00 | 0.00 | 64 | 1009.6 |
| 20260504005538 | 45 | 193 | 0.9 | 1.7 | 0.00 | 0.00 | 0.00 | 62 | 1009.6 |
| 20260504005036 | 46 | 247 | 2.6 | 2.6 | 0.00 | 0.00 | 0.00 | 63 | 1009.4 |
| 20260504004533 | 46 | 190 | 0.9 | 1.7 | 0.00 | 0.00 | 0.00 | 60 | 1009.5 |
| 20260504004030 | 47 | 197 | 1.7 | 2.6 | 0.00 | 0.00 | 0.00 | 63 | 1009.3 |
| 20260504003526 | 47 | 224 | 2.6 | 4.3 | 0.00 | 0.00 | 0.00 | 65 | 1009.4 |
| 20260504003023 | 46 | 263 | 2.6 | 4.3 | 0.00 | 0.00 | 0.00 | 66 | 1009.3 |
| 20260504002520 | 46 | 191 | 0.0 | 0.0 | 0.00 | 0.00 | 0.00 | 62 | 1009.1 |
| 20260504002018 | 46 | 168 | 0.0 | 0.0 | 0.00 | 0.00 | 0.00 | 59 | 1009.1 |
| 20260504001515 | 46 | 115 | 0.9 | 1.7 | 0.00 | 0.00 | 0.00 | 58 | 1009.0 |
| 20260504001011 | 46 | 142 | 1.7 | 1.7 | 0.00 | 0.00 | 0.00 | 55 | 1008.9 |
| 20260504000509 | 47 | 145 | 0.9 | 1.7 | 0.00 | 0.00 | 0.00 | 54 | 1008.9 |
| 20260504000006 | 47 | 59 | 4.3 | 4.3 | 0.00 | 0.00 | 0.00 | 55 | 1008.8 |
| 20260503235504 | 47 | 48 | 2.6 | 4.3 | 0.00 | 0.00 | 0.00 | 53 | 1008.9 |
| 20260503235001 | 47 | 214 | 1.7 | 2.6 | 0.00 | 0.00 | 0.00 | 56 | 1008.8 |
| 20260503234458 | 47 | 36 | 1.7 | 2.6 | 0.00 | 0.00 | 0.00 | 55 | 1008.8 |
| 20260503233956 | 48 | 193 | 1.7 | 1.7 | 0.00 | 0.00 | 0.00 | 53 | 1008.7 |
| 20260503233452 | 48 | 159 | 0.0 | 1.7 | 0.00 | 0.00 | 0.00 | 54 | 1008.7 |
| 20260503232948 | 48 | 68 | 2.6 | 2.6 | 0.00 | 0.00 | 0.00 | 54 | 1008.5 |
| 20260503232446 | 48 | 159 | 3.5 | 4.3 | 0.00 | 0.00 | 0.00 | 53 | 1008.6 |